AB776 CYQT-CYGK

Flight info

Callsign AB776
Flight time N/A
Altitude 29000
Route SSM
Aircraft PC12/L-SDFGRWY/S

Departure

Time 2026-04-26 16:52
Airport Thunder Bay International Airport (CYQT)

Arrival

Time N/A
Airport Kingston Norman Rogers Airport (CYGK)
Time Latitude Longitude Altitude Speed Heading
2026-04-26 16:39 48.37558 -89.32265 652 ft 0 kts 256°
2026-04-26 16:47 48.37558 -89.32266 652 ft 0 kts 256°
2026-04-26 16:47 48.37555 -89.32287 652 ft 6 kts 253°
2026-04-26 16:48 48.37509 -89.32309 652 ft 11 kts 168°
2026-04-26 16:48 48.37442 -89.32261 652 ft 9 kts 85°
2026-04-26 16:48 48.37468 -89.32172 652 ft 9 kts 66°
2026-04-26 16:48 48.37492 -89.32065 654 ft 13 kts 72°
2026-04-26 16:49 48.37522 -89.31939 653 ft 13 kts 73°
2026-04-26 16:49 48.37465 -89.31870 652 ft 12 kts 162°
2026-04-26 16:49 48.37390 -89.31803 650 ft 14 kts 109°
2026-04-26 16:49 48.37416 -89.31668 650 ft 14 kts 70°
2026-04-26 16:50 48.37453 -89.31517 650 ft 17 kts 70°
2026-04-26 16:50 48.37480 -89.31403 650 ft 18 kts 70°
2026-04-26 16:50 48.37545 -89.31280 652 ft 15 kts 36°
2026-04-26 16:50 48.37523 -89.31227 652 ft 14 kts 237°
2026-04-26 16:51 48.37499 -89.31313 652 ft 4 kts 250°
2026-04-26 16:51 48.37478 -89.31408 650 ft 21 kts 252°
2026-04-26 16:51 48.37369 -89.31889 650 ft 75 kts 263°
2026-04-26 16:51 48.37140 -89.32724 779 ft 98 kts 249°
2026-04-26 16:52 48.36870 -89.33735 1094 ft 108 kts 252°
2026-04-26 16:52 48.36685 -89.34481 1319 ft 120 kts 252°
2026-04-26 16:52 48.36266 -89.36294 1800 ft 155 kts 253°
2026-04-26 16:52 48.35921 -89.37846 2422 ft 157 kts 241°
2026-04-26 16:53 48.35031 -89.38734 2994 ft 161 kts 186°
2026-04-26 16:53 48.34013 -89.38166 3551 ft 164 kts 132°
2026-04-26 16:53 48.33477 -89.36650 4040 ft 168 kts 103°
2026-04-26 16:53 48.33589 -89.34928 4553 ft 169 kts 72°
2026-04-26 16:54 48.33923 -89.33221 5098 ft 171 kts 72°
2026-04-26 16:54 48.34265 -89.31494 5625 ft 173 kts 75°
2026-04-26 16:54 48.34141 -89.29706 6121 ft 175 kts 114°
2026-04-26 16:54 48.33592 -89.28071 6627 ft 176 kts 119°
2026-04-26 16:55 48.33010 -89.26441 7136 ft 178 kts 120°
2026-04-26 16:55 48.32423 -89.24788 7630 ft 180 kts 120°
2026-04-26 16:55 48.31831 -89.23110 8132 ft 183 kts 120°
2026-04-26 16:55 48.31232 -89.21413 8660 ft 185 kts 120°
2026-04-26 16:56 48.30011 -89.17959 9697 ft 190 kts 121°
2026-04-26 16:56 48.29387 -89.16198 10201 ft 192 kts 121°
2026-04-26 16:56 48.28754 -89.14411 10657 ft 196 kts 121°
2026-04-26 16:57 48.28107 -89.12584 11100 ft 200 kts 122°
2026-04-26 16:57 48.27447 -89.10725 11554 ft 204 kts 122°
2026-04-26 16:57 48.26085 -89.06890 12478 ft 212 kts 123°
2026-04-26 16:58 48.25385 -89.04917 12951 ft 216 kts 124°
2026-04-26 16:58 48.24912 -89.03590 13274 ft 219 kts 124°
2026-04-26 16:58 48.23201 -88.98783 14347 ft 228 kts 124°
2026-04-26 16:59 48.22452 -88.96681 14802 ft 229 kts 124°
2026-04-26 16:59 48.20939 -88.92442 15705 ft 232 kts 125°
2026-04-26 17:00 48.19403 -88.88148 16592 ft 235 kts 125°
2026-04-26 17:00 48.17846 -88.83800 17479 ft 238 kts 125°
2026-04-26 17:00 48.17059 -88.81605 17916 ft 240 kts 125°
2026-04-26 17:01 48.16276 -88.79424 18352 ft 242 kts 125°
2026-04-26 17:01 48.15466 -88.77168 18754 ft 243 kts 125°
2026-04-26 17:01 48.14674 -88.74965 19117 ft 245 kts 126°
2026-04-26 17:01 48.13862 -88.72708 19477 ft 247 kts 126°
2026-04-26 17:02 48.13045 -88.70442 19841 ft 249 kts 126°
2026-04-26 17:02 48.12209 -88.68124 20212 ft 250 kts 127°
2026-04-26 17:02 48.11391 -88.65857 20585 ft 252 kts 127°
2026-04-26 17:02 48.10557 -88.63544 20967 ft 253 kts 127°
2026-04-26 17:03 48.09717 -88.61221 21344 ft 255 kts 128°
2026-04-26 17:03 48.08871 -88.58882 21714 ft 256 kts 128°
2026-04-26 17:03 48.08020 -88.56532 22066 ft 257 kts 128°
2026-04-26 17:03 48.07164 -88.54171 22328 ft 259 kts 128°
2026-04-26 17:04 48.06305 -88.51802 22609 ft 260 kts 128°
2026-04-26 17:04 48.05440 -88.49419 22887 ft 261 kts 129°
2026-04-26 17:04 48.04572 -88.47029 23158 ft 262 kts 129°
2026-04-26 17:04 48.03700 -88.44630 23431 ft 263 kts 129°
2026-04-26 17:05 48.02823 -88.42222 23707 ft 264 kts 129°
2026-04-26 17:05 48.01943 -88.39805 23950 ft 265 kts 129°
2026-04-26 17:05 48.01059 -88.37381 24169 ft 267 kts 129°
2026-04-26 17:05 48.00170 -88.34947 24388 ft 268 kts 129°
2026-04-26 17:06 47.99277 -88.32500 24597 ft 269 kts 129°
2026-04-26 17:06 47.98377 -88.30040 24812 ft 270 kts 129°
2026-04-26 17:06 47.97474 -88.27574 25022 ft 271 kts 130°
2026-04-26 17:06 47.96568 -88.25099 25225 ft 273 kts 129°
2026-04-26 17:07 47.95656 -88.22610 25436 ft 274 kts 130°
2026-04-26 17:07 47.94739 -88.20114 25691 ft 275 kts 130°
2026-04-26 17:07 47.93819 -88.17608 25946 ft 276 kts 130°
2026-04-26 17:07 47.92891 -88.15085 26195 ft 278 kts 130°
2026-04-26 17:08 47.91960 -88.12555 26440 ft 279 kts 130°
2026-04-26 17:08 47.91021 -88.10007 26691 ft 281 kts 130°
2026-04-26 17:08 47.90079 -88.07452 26936 ft 282 kts 130°
2026-04-26 17:08 47.89130 -88.04882 27185 ft 284 kts 130°
2026-04-26 17:09 47.88176 -88.02300 27425 ft 285 kts 130°
2026-04-26 17:09 47.87541 -88.00581 27584 ft 286 kts 130°
2026-04-26 17:09 47.86253 -87.97103 27904 ft 288 kts 130°
2026-04-26 17:09 47.85284 -87.94486 28139 ft 289 kts 130°
2026-04-26 17:10 47.84307 -87.91855 28377 ft 291 kts 130°
2026-04-26 17:10 47.83328 -87.89218 28612 ft 292 kts 130°
2026-04-26 17:10 47.82343 -87.86566 28837 ft 293 kts 130°
2026-04-26 17:10 47.81353 -87.83906 29065 ft 295 kts 130°
2026-04-26 17:11 47.80357 -87.81231 29287 ft 296 kts 130°
2026-04-26 17:11 47.79356 -87.78546 29518 ft 297 kts 130°
2026-04-26 17:11 47.78363 -87.75886 29734 ft 299 kts 130°
2026-04-26 17:11 47.77331 -87.73129 29766 ft 307 kts 130°
2026-04-26 17:12 47.75168 -87.67377 29267 ft 332 kts 128°
2026-04-26 17:12 47.74064 -87.64391 29229 ft 326 kts 128°
2026-04-26 17:13 47.70784 -87.55665 29214 ft 320 kts 129°
2026-04-26 17:14 47.67540 -87.47048 29213 ft 318 kts 129°
2026-04-26 17:14 47.64306 -87.38495 29218 ft 316 kts 129°
2026-04-26 17:15 47.61075 -87.29974 29217 ft 316 kts 129°
2026-04-26 17:16 47.58919 -87.24305 29219 ft 316 kts 129°
2026-04-26 17:16 47.56761 -87.18643 29226 ft 315 kts 128°
2026-04-26 17:17 47.54603 -87.12991 29227 ft 315 kts 128°
2026-04-26 17:17 47.52441 -87.07342 29224 ft 315 kts 128°
2026-04-26 17:18 47.50278 -87.01700 29226 ft 315 kts 128°
2026-04-26 17:18 47.48112 -86.96065 29235 ft 315 kts 128°
2026-04-26 17:19 47.44859 -86.87620 29234 ft 315 kts 128°
2026-04-26 17:19 47.42686 -86.81995 29242 ft 315 kts 128°
2026-04-26 17:20 47.40877 -86.77321 29235 ft 316 kts 128°
2026-04-26 17:20 47.38327 -86.70747 29243 ft 315 kts 128°
2026-04-26 17:21 47.36147 -86.65139 29238 ft 315 kts 127°
2026-04-26 17:21 47.33962 -86.59528 29240 ft 315 kts 127°
2026-04-26 17:22 47.31787 -86.53958 29237 ft 315 kts 127°
2026-04-26 17:22 47.29585 -86.48328 29238 ft 315 kts 127°
2026-04-26 17:23 47.27393 -86.42735 29239 ft 315 kts 127°
2026-04-26 17:23 47.25218 -86.37197 29238 ft 315 kts 127°
2026-04-26 17:24 47.23010 -86.31588 29236 ft 315 kts 127°
2026-04-26 17:24 47.20828 -86.26055 29238 ft 314 kts 127°
2026-04-26 17:25 47.18632 -86.20499 29239 ft 314 kts 127°
2026-04-26 17:25 47.16433 -86.14945 29237 ft 314 kts 127°
2026-04-26 17:26 47.14235 -86.09406 29239 ft 314 kts 127°
2026-04-26 17:26 47.12034 -86.03872 29239 ft 314 kts 127°
2026-04-26 17:27 47.09833 -85.98349 29235 ft 313 kts 127°
2026-04-26 17:27 47.07631 -85.92833 29235 ft 313 kts 127°
2026-04-26 17:28 47.05433 -85.87335 29222 ft 309 kts 127°
2026-04-26 17:28 47.03266 -85.81931 29232 ft 306 kts 127°
2026-04-26 17:29 47.01824 -85.78342 29233 ft 305 kts 127°
2026-04-26 17:29 46.98957 -85.71214 29232 ft 304 kts 127°
2026-04-26 17:30 46.96807 -85.65883 29233 ft 304 kts 127°
2026-04-26 17:30 46.94659 -85.60566 29230 ft 303 kts 127°
2026-04-26 17:31 46.92509 -85.55256 29231 ft 303 kts 127°
2026-04-26 17:31 46.90373 -85.49989 29234 ft 303 kts 126°
2026-04-26 17:32 46.88224 -85.44702 29233 ft 303 kts 127°
2026-04-26 17:32 46.86072 -85.39415 29227 ft 302 kts 126°
2026-04-26 17:33 46.83917 -85.34132 29224 ft 302 kts 126°
2026-04-26 17:34 46.80683 -85.26226 29224 ft 302 kts 126°
2026-04-26 17:34 46.78525 -85.20960 29219 ft 302 kts 126°
2026-04-26 17:35 46.76362 -85.15695 29222 ft 303 kts 126°
2026-04-26 17:35 46.74196 -85.10431 29222 ft 303 kts 126°
2026-04-26 17:36 46.72024 -85.05162 29219 ft 303 kts 126°
2026-04-26 17:36 46.70217 -85.00787 29214 ft 303 kts 126°
2026-04-26 17:37 46.68041 -84.95527 29215 ft 303 kts 126°
2026-04-26 17:37 46.65865 -84.90280 29212 ft 303 kts 126°
2026-04-26 17:38 46.62595 -84.82409 29213 ft 303 kts 126°
2026-04-26 17:38 46.60415 -84.77176 29203 ft 303 kts 126°
2026-04-26 17:39 46.58233 -84.71946 29202 ft 302 kts 126°
2026-04-26 17:39 46.56050 -84.66726 29204 ft 302 kts 126°
2026-04-26 17:40 46.54234 -84.62389 29202 ft 302 kts 126°
2026-04-26 17:40 46.51680 -84.56302 29201 ft 302 kts 126°
2026-04-26 17:41 46.49492 -84.51099 29202 ft 302 kts 126°
2026-04-26 17:41 46.47304 -84.45905 29199 ft 302 kts 126°
2026-04-26 17:42 46.45112 -84.40711 29215 ft 302 kts 126°
2026-04-26 17:42 46.42916 -84.35518 29212 ft 302 kts 126°
2026-04-26 17:43 46.40884 -84.30203 29214 ft 303 kts 112°
2026-04-26 17:43 46.39526 -84.24417 29214 ft 304 kts 111°
2026-04-26 17:44 46.38127 -84.18639 29216 ft 304 kts 112°
2026-04-26 17:44 46.36732 -84.12853 29213 ft 304 kts 112°
2026-04-26 17:45 46.35343 -84.07109 29219 ft 305 kts 112°
2026-04-26 17:45 46.33938 -84.01319 29220 ft 305 kts 112°
2026-04-26 17:46 46.32531 -83.95532 29222 ft 305 kts 112°
2026-04-26 17:46 46.31124 -83.89758 29222 ft 304 kts 112°
2026-04-26 17:47 46.29942 -83.84921 29230 ft 304 kts 112°
2026-04-26 17:47 46.28301 -83.78224 29235 ft 304 kts 112°
2026-04-26 17:48 46.26889 -83.72475 29234 ft 304 kts 112°
2026-04-26 17:48 46.25472 -83.66723 29239 ft 303 kts 112°
2026-04-26 17:49 46.24055 -83.60983 29235 ft 303 kts 112°
2026-04-26 17:49 46.22635 -83.55247 29235 ft 303 kts 112°
2026-04-26 17:50 46.21214 -83.49520 29236 ft 303 kts 112°
2026-04-26 17:50 46.19788 -83.43791 29239 ft 303 kts 112°
2026-04-26 17:51 46.18362 -83.38070 29240 ft 303 kts 112°
2026-04-26 17:51 46.16934 -83.32360 29239 ft 303 kts 112°
2026-04-26 17:52 46.15502 -83.26650 29239 ft 303 kts 112°
2026-04-26 17:52 46.14069 -83.20946 29246 ft 302 kts 112°
2026-04-26 17:53 46.12634 -83.15251 29250 ft 302 kts 112°
2026-04-26 17:54 46.10475 -83.06710 29247 ft 302 kts 112°
2026-04-26 17:54 46.09035 -83.01029 29243 ft 302 kts 112°
2026-04-26 17:55 46.07590 -82.95341 29241 ft 302 kts 112°
2026-04-26 17:55 46.06143 -82.89661 29233 ft 303 kts 112°
2026-04-26 17:56 46.04687 -82.83962 29240 ft 303 kts 112°
2026-04-26 17:57 46.01764 -82.72561 29241 ft 304 kts 112°
2026-04-26 17:57 46.00296 -82.66854 29235 ft 304 kts 112°
2026-04-26 17:58 45.97354 -82.55461 29234 ft 304 kts 112°
2026-04-26 17:59 45.95141 -82.46931 29232 ft 304 kts 112°
2026-04-26 17:59 45.93662 -82.41243 29232 ft 304 kts 112°
2026-04-26 18:00 45.92180 -82.35560 29233 ft 304 kts 112°
2026-04-26 18:00 45.90693 -82.29874 29239 ft 304 kts 112°
2026-04-26 18:01 45.89205 -82.24195 29236 ft 304 kts 112°
2026-04-26 18:01 45.87712 -82.18513 29240 ft 304 kts 112°
2026-04-26 18:02 45.86467 -82.13785 29243 ft 304 kts 112°
2026-04-26 18:02 45.84726 -82.07187 29248 ft 305 kts 112°
2026-04-26 18:03 45.83222 -82.01506 29247 ft 305 kts 112°
2026-04-26 18:03 45.81705 -81.95786 29248 ft 305 kts 112°
2026-04-26 18:04 45.80199 -81.90120 29249 ft 304 kts 112°
2026-04-26 18:05 45.77942 -81.81657 29253 ft 304 kts 112°
2026-04-26 18:05 45.76429 -81.76000 29259 ft 305 kts 112°
2026-04-26 18:06 45.74910 -81.70335 29265 ft 305 kts 112°
2026-04-26 18:06 45.73387 -81.64668 29265 ft 305 kts 112°
2026-04-26 18:07 45.71862 -81.59008 29266 ft 305 kts 112°
2026-04-26 18:07 45.70337 -81.53359 29267 ft 304 kts 112°
2026-04-26 18:08 45.68809 -81.47716 29270 ft 304 kts 112°
2026-04-26 18:08 45.67279 -81.42076 29271 ft 304 kts 112°
2026-04-26 18:09 45.65747 -81.36444 29275 ft 304 kts 112°
2026-04-26 18:09 45.64212 -81.30811 29274 ft 304 kts 112°
2026-04-26 18:10 45.62675 -81.25186 29274 ft 304 kts 112°
2026-04-26 18:10 45.61137 -81.19570 29276 ft 304 kts 112°
2026-04-26 18:11 45.59596 -81.13960 29274 ft 304 kts 111°
2026-04-26 18:11 45.58054 -81.08353 29271 ft 303 kts 111°
2026-04-26 18:12 45.56508 -81.02749 29272 ft 303 kts 111°
2026-04-26 18:12 45.54959 -80.97146 29269 ft 303 kts 111°
2026-04-26 18:13 45.53409 -80.91553 29273 ft 303 kts 111°
2026-04-26 18:13 45.51855 -80.85956 29269 ft 303 kts 111°
2026-04-26 18:14 45.50300 -80.80369 29270 ft 303 kts 111°
2026-04-26 18:14 45.48743 -80.74788 29268 ft 303 kts 111°
2026-04-26 18:15 45.47183 -80.69213 29270 ft 303 kts 111°
2026-04-26 18:15 45.45632 -80.63679 29267 ft 303 kts 111°
2026-04-26 18:16 45.44058 -80.58076 29266 ft 302 kts 111°
2026-04-26 18:16 45.41713 -80.49750 29264 ft 302 kts 111°
2026-04-26 18:17 45.40147 -80.44209 29264 ft 302 kts 111°
2026-04-26 18:17 45.38590 -80.38709 29260 ft 302 kts 111°
2026-04-26 18:18 45.37021 -80.33181 29258 ft 301 kts 111°
2026-04-26 18:18 45.35448 -80.27653 29256 ft 301 kts 111°
2026-04-26 18:19 45.33874 -80.22131 29250 ft 301 kts 111°
2026-04-26 18:19 45.32300 -80.16623 29249 ft 301 kts 111°
2026-04-26 18:20 45.30721 -80.11110 29244 ft 301 kts 111°
2026-04-26 18:20 45.29666 -80.07431 29244 ft 301 kts 111°
2026-04-26 18:21 45.27562 -80.00113 29242 ft 301 kts 111°